TimeEET,TemperatureF,Dew PointF,Humidity,Sea Level PressureIn,VisibilityMPH,Wind Direction,Wind SpeedMPH,Gust SpeedMPH,PrecipitationIn,Events,Conditions,WindDirDegrees,DateUTC
12:00 AM,71.6,64.4,78,29.83,-9999.0,SSE,2.3,-,N/A,,Clear,150,2013-09-16 22:00:00
1:00 AM,68.0,64.4,88,29.83,-9999.0,Calm,Calm,-,N/A,,Clear,0,2013-09-16 23:00:00
2:00 AM,68,64,82,29.83,6,SSE,2.3,,,,,160,2013-09-17 00:00:00
2:00 AM,68.0,64.4,88,29.80,-9999.0,SSE,2.3,-,N/A,,Clear,160,2013-09-17 00:00:00
3:00 AM,68.0,64.4,88,29.83,-9999.0,South,2.3,-,N/A,,Clear,190,2013-09-17 01:00:00
4:00 AM,68.0,64.4,88,29.80,-9999.0,South,4.6,-,N/A,,Clear,170,2013-09-17 02:00:00
5:00 AM,68.0,64.4,88,29.80,-9999.0,SE,2.3,-,N/A,,Clear,140,2013-09-17 03:00:00
6:00 AM,66.2,64.4,94,29.83,3.7,Calm,Calm,-,N/A,,Unknown,0,2013-09-17 04:00:00
7:00 AM,71.6,66.2,83,29.83,3.7,SSE,2.3,-,N/A,,Unknown,150,2013-09-17 05:00:00
8:00 AM,77,69,70,29.85,6,South,4.6,,,,,170,2013-09-17 06:00:00
8:00 AM,77.0,68.0,74,29.83,-9999.0,South,4.6,-,N/A,,Clear,170,2013-09-17 06:00:00
9:00 AM,80.6,69.8,70,29.83,-9999.0,SSW,8.1,-,N/A,,Clear,200,2013-09-17 07:00:00
10:00 AM,82.4,68.0,62,29.83,-9999.0,SSW,10.4,-,N/A,,Clear,210,2013-09-17 08:00:00
11:00 AM,86.0,68.0,55,29.83,-9999.0,SW,9.2,-,N/A,,Clear,220,2013-09-17 09:00:00
12:00 PM,89.6,64.4,43,29.83,-9999.0,WSW,10.4,-,N/A,,Clear,250,2013-09-17 10:00:00
1:00 PM,89.6,68.0,49,29.80,-9999.0,West,9.2,-,N/A,,Clear,280,2013-09-17 11:00:00
2:00 PM,90,63,30,29.82,6,West,13.8,,,,,270,2013-09-17 12:00:00
2:00 PM,89.6,62.6,40,29.80,-9999.0,West,13.8,-,N/A,,Clear,270,2013-09-17 12:00:00
3:00 PM,91.4,64.4,41,29.80,-9999.0,West,15.0,-,N/A,,Clear,280,2013-09-17 13:00:00
4:00 PM,91.4,62.6,38,29.77,-9999.0,West,13.8,-,N/A,,Clear,270,2013-09-17 14:00:00
5:00 PM,89.6,59.0,36,29.77,-9999.0,WNW,13.8,-,N/A,,Clear,290,2013-09-17 15:00:00
6:00 PM,86.0,60.8,43,29.77,-9999.0,WNW,9.2,-,N/A,,Clear,300,2013-09-17 16:00:00
7:00 PM,84.2,62.6,48,29.77,-9999.0,WNW,6.9,-,N/A,,Clear,290,2013-09-17 17:00:00
8:00 PM,83,64,44,29.79,6,West,5.8,,,,,260,2013-09-17 18:00:00
8:00 PM,82.4,64.4,54,29.77,-9999.0,West,5.8,-,N/A,,Clear,260,2013-09-17 18:00:00
9:00 PM,80.6,64.4,58,29.80,-9999.0,West,10.4,-,N/A,,Clear,260,2013-09-17 19:00:00
10:00 PM,80.6,68.0,65,29.80,-9999.0,West,9.2,-,N/A,,Clear,280,2013-09-17 20:00:00
11:00 PM,80.6,71.6,74,29.80,-9999.0,WNW,9.2,-,N/A,,Clear,290,2013-09-17 21:00:00